| time (UTC) | temp F | wind direction | speed knots | gust knots | rain 1hr in | rain 24hr in | rain mn in | humidity % | barometer mb |
| 20260906215023 | 69 | 79 | 1.7 | 6.1 | 0.00 | 0.00 | 0.00 | 70 | 1018.7 |
| 20260906214543 | 69 | 17 | 0.9 | 7.0 | 0.00 | 0.00 | 0.00 | 71 | 1018.8 |
| 20260906214024 | 69 | 57 | 1.7 | 7.0 | 0.00 | 0.00 | 0.00 | 71 | 1018.6 |
| 20260906213522 | 69 | 19 | 1.7 | 7.8 | 0.00 | 0.00 | 0.00 | 72 | 1018.6 |
| 20260906213055 | 69 | 78 | 2.6 | 7.8 | 0.00 | 0.00 | 0.00 | 71 | 1018.6 |
| 20260906212524 | 69 | 5 | 1.7 | 7.8 | 0.00 | 0.00 | 0.00 | 70 | 1018.6 |
| 20260906212025 | 69 | 66 | 1.7 | 7.8 | 0.00 | 0.00 | 0.00 | 71 | 1018.7 |
| 20260906211549 | 69 | 12 | 2.6 | 7.8 | 0.00 | 0.00 | 0.00 | 70 | 1018.6 |
| 20260906211026 | 69 | 101 | 1.7 | 8.7 | 0.00 | 0.00 | 0.00 | 71 | 1018.6 |
| 20260906210524 | 69 | 32 | 0.9 | 8.7 | 0.00 | 0.00 | 0.00 | 72 | 1018.7 |
| 20260906210050 | 69 | 350 | 1.7 | 11.3 | 0.00 | 0.00 | 0.00 | 73 | 1018.7 |
| 20260906205525 | 69 | 20 | 2.6 | 11.3 | 0.00 | 0.00 | 0.00 | 72 | 1018.7 |
| 20260906205028 | 69 | 77 | 0.9 | 8.7 | 0.00 | 0.00 | 0.00 | 73 | 1018.7 |
| 20260906204601 | 68 | 348 | 3.5 | 10.4 | 0.00 | 0.00 | 0.00 | 72 | 1018.7 |
| 20260906204021 | 68 | 75 | 2.6 | 10.4 | 0.00 | 0.00 | 0.00 | 72 | 1018.6 |
| 20260906203525 | 68 | 49 | 1.7 | 7.0 | 0.00 | 0.00 | 0.00 | 73 | 1018.6 |
| 20260906203059 | 69 | 48 | 2.6 | 10.4 | 0.00 | 0.00 | 0.00 | 72 | 1018.6 |
| 20260906202524 | 68 | 55 | 4.3 | 10.4 | 0.00 | 0.00 | 0.00 | 72 | 1018.5 |
| 20260906202030 | 69 | 49 | 2.6 | 7.8 | 0.00 | 0.00 | 0.00 | 73 | 1018.4 |
| 20260906201548 | 68 | 84 | 2.6 | 7.8 | 0.00 | 0.00 | 0.00 | 72 | 1018.5 |
| 20260906201027 | 69 | 78 | 3.5 | 7.8 | 0.00 | 0.00 | 0.00 | 73 | 1018.4 |
| 20260906200524 | 68 | 328 | 2.6 | 7.8 | 0.00 | 0.00 | 0.00 | 72 | 1018.6 |
| 20260906200121 | 68 | 71 | 1.7 | 10.4 | 0.00 | 0.00 | 0.00 | 74 | 1018.7 |
| 20260906195523 | 68 | 41 | 2.6 | 10.4 | 0.00 | 0.00 | 0.00 | 73 | 1018.7 |
| 20260906195023 | 68 | 44 | 2.6 | 9.6 | 0.00 | 0.00 | 0.00 | 72 | 1018.6 |
| 20260906194543 | 68 | 340 | 2.6 | 9.6 | 0.00 | 0.00 | 0.00 | 73 | 1018.5 |
| 20260906194025 | 69 | 17 | 3.5 | 9.6 | 0.00 | 0.00 | 0.00 | 73 | 1018.5 |
| 20260906193524 | 69 | 51 | 2.6 | 7.8 | 0.00 | 0.00 | 0.00 | 74 | 1018.6 |
| 20260906193059 | 69 | 5 | 2.6 | 8.7 | 0.00 | 0.00 | 0.00 | 74 | 1018.5 |
| 20260906192523 | 68 | 338 | 2.6 | 8.7 | 0.00 | 0.00 | 0.00 | 74 | 1018.4 |
| 20260906192025 | 68 | 69 | 1.7 | 8.7 | 0.00 | 0.00 | 0.00 | 74 | 1018.4 |
| 20260906191547 | 68 | 49 | 3.5 | 8.7 | 0.00 | 0.00 | 0.00 | 73 | 1018.4 |
| 20260906191024 | 68 | 53 | 1.7 | 7.8 | 0.00 | 0.00 | 0.00 | 73 | 1018.3 |
| 20260906190523 | 69 | 67 | 1.7 | 7.0 | 0.00 | 0.00 | 0.00 | 74 | 1018.4 |
| 20260906190054 | 68 | 82 | 1.7 | 9.6 | 0.00 | 0.00 | 0.00 | 73 | 1018.4 |
| 20260906185525 | 68 | 79 | 3.5 | 9.6 | 0.00 | 0.00 | 0.00 | 74 | 1018.5 |
| 20260906185026 | 68 | 49 | 2.6 | 9.6 | 0.00 | 0.00 | 0.00 | 75 | 1018.6 |
| 20260906184554 | 68 | 59 | 2.6 | 9.6 | 0.00 | 0.00 | 0.00 | 73 | 1018.6 |
| 20260906184027 | 68 | 74 | 3.5 | 8.7 | 0.00 | 0.00 | 0.00 | 75 | 1018.7 |
| 20260906183526 | 68 | 64 | 3.5 | 8.7 | 0.00 | 0.00 | 0.00 | 74 | 1018.8 |
| 20260906183049 | 68 | 65 | 2.6 | 8.7 | 0.00 | 0.00 | 0.00 | 74 | 1018.7 |
| 20260906182527 | 68 | 40 | 1.7 | 8.7 | 0.00 | 0.00 | 0.00 | 75 | 1018.7 |
| 20260906182024 | 68 | 24 | 3.5 | 12.2 | 0.00 | 0.00 | 0.00 | 75 | 1018.7 |
| 20260906181553 | 68 | 360 | 1.7 | 12.2 | 0.00 | 0.00 | 0.00 | 76 | 1018.6 |
| 20260906181026 | 68 | 15 | 2.6 | 7.8 | 0.00 | 0.00 | 0.00 | 76 | 1018.7 |
| 20260906180525 | 67 | 44 | 1.7 | 7.8 | 0.00 | 0.00 | 0.00 | 76 | 1018.9 |
| 20260906180105 | 67 | 54 | 1.7 | 9.6 | 0.00 | 0.00 | 0.00 | 76 | 1018.8 |
| 20260906175526 | 67 | 17 | 2.6 | 9.6 | 0.00 | 0.00 | 0.00 | 75 | 1018.9 |
| 20260906175024 | 67 | 74 | 2.6 | 8.7 | 0.00 | 0.00 | 0.00 | 76 | 1018.8 |
| 20260906174551 | 67 | 20 | 2.6 | 8.7 | 0.00 | 0.00 | 0.00 | 76 | 1018.9 |
| 20260906174024 | 67 | 65 | 1.7 | 7.0 | 0.00 | 0.00 | 0.00 | 77 | 1019.0 |
| 20260906173524 | 67 | 82 | 1.7 | 7.0 | 0.00 | 0.00 | 0.00 | 79 | 1019.1 |
| 20260906173048 | 67 | 341 | 2.6 | 7.0 | 0.00 | 0.00 | 0.00 | 77 | 1019.1 |
| 20260906172522 | 67 | 0 | 2.6 | 7.0 | 0.00 | 0.00 | 0.00 | 78 | 1019.1 |
| 20260906172022 | 67 | 67 | 2.6 | 9.6 | 0.00 | 0.00 | 0.00 | 79 | 1019.1 |
| 20260906171550 | 66 | 49 | 1.7 | 9.6 | 0.00 | 0.00 | 0.00 | 79 | 1019.0 |
| 20260906171025 | 66 | 16 | 2.6 | 7.0 | 0.00 | 0.00 | 0.00 | 79 | 1019.0 |
| 20260906170526 | 66 | 21 | 2.6 | 10.4 | 0.00 | 0.00 | 0.00 | 78 | 1018.9 |
| 20260906170107 | 66 | 43 | 1.7 | 10.4 | 0.00 | 0.00 | 0.00 | 79 | 1018.9 |
| 20260906165527 | 66 | 55 | 2.6 | 10.4 | 0.00 | 0.00 | 0.00 | 80 | 1018.9 |
| 20260906165024 | 66 | 28 | 2.6 | 7.8 | 0.00 | 0.00 | 0.00 | 79 | 1018.9 |
| 20260906164552 | 66 | 65 | 2.6 | 7.8 | 0.00 | 0.00 | 0.00 | 80 | 1018.8 |
| 20260906164028 | 66 | 80 | 2.6 | 7.8 | 0.00 | 0.00 | 0.00 | 80 | 1018.9 |
| 20260906163524 | 66 | 62 | 1.7 | 7.8 | 0.00 | 0.00 | 0.00 | 81 | 1019.0 |
| 20260906163056 | 65 | 38 | 3.5 | 7.8 | 0.00 | 0.00 | 0.00 | 80 | 1018.9 |
| 20260906162528 | 65 | 80 | 2.6 | 7.8 | 0.00 | 0.00 | 0.00 | 80 | 1018.9 |
| 20260906162026 | 65 | 51 | 2.6 | 8.7 | 0.00 | 0.00 | 0.00 | 79 | 1019.0 |
| 20260906161553 | 65 | 342 | 1.7 | 8.7 | 0.00 | 0.00 | 0.00 | 81 | 1019.0 |
| 20260906161025 | 66 | 83 | 2.6 | 8.7 | 0.00 | 0.00 | 0.00 | 80 | 1019.1 |
| 20260906160525 | 65 | 352 | 2.6 | 10.4 | 0.00 | 0.00 | 0.00 | 82 | 1019.0 |
| 20260906160055 | 65 | 58 | 3.5 | 10.4 | 0.00 | 0.00 | 0.00 | 80 | 1019.0 |
| 20260906155527 | 66 | 82 | 2.6 | 9.6 | 0.00 | 0.00 | 0.00 | 81 | 1019.0 |
| 20260906155029 | 66 | 9 | 2.6 | 9.6 | 0.00 | 0.00 | 0.00 | 80 | 1018.9 |
| 20260906154548 | 66 | 360 | 2.6 | 10.4 | 0.00 | 0.00 | 0.00 | 81 | 1019.0 |
| 20260906154024 | 66 | 38 | 2.6 | 10.4 | 0.00 | 0.00 | 0.00 | 81 | 1018.8 |
| 20260906153526 | 66 | 71 | 4.3 | 10.4 | 0.00 | 0.00 | 0.00 | 80 | 1018.8 |
| 20260906153043 | 66 | 36 | 2.6 | 7.0 | 0.00 | 0.00 | 0.00 | 80 | 1018.8 |
| 20260906152525 | 66 | 72 | 1.7 | 9.6 | 0.00 | 0.00 | 0.00 | 80 | 1018.9 |
| 20260906152024 | 66 | 37 | 3.5 | 9.6 | 0.00 | 0.00 | 0.00 | 80 | 1018.8 |
| 20260906151552 | 66 | 30 | 2.6 | 7.8 | 0.00 | 0.00 | 0.00 | 80 | 1018.8 |
| 20260906151025 | 66 | 40 | 2.6 | 8.7 | 0.00 | 0.00 | 0.00 | 80 | 1018.8 |
| 20260906150525 | 65 | 94 | 2.6 | 8.7 | 0.00 | 0.00 | 0.00 | 81 | 1018.8 |
| 20260906150106 | 66 | 60 | 1.7 | 7.8 | 0.00 | 0.00 | 0.00 | 82 | 1018.9 |
| 20260906145524 | 66 | 67 | 2.6 | 8.7 | 0.00 | 0.00 | 0.00 | 82 | 1018.8 |
| 20260906145024 | 66 | 23 | 3.5 | 8.7 | 0.00 | 0.00 | 0.00 | 81 | 1018.8 |
| 20260906144548 | 66 | 24 | 2.6 | 9.6 | 0.00 | 0.00 | 0.00 | 83 | 1018.9 |
| 20260906144022 | 66 | 38 | 1.7 | 9.6 | 0.00 | 0.00 | 0.00 | 81 | 1018.9 |
| 20260906143526 | 66 | 74 | 1.7 | 8.7 | 0.00 | 0.00 | 0.00 | 82 | 1018.9 |
| 20260906143050 | 66 | 65 | 2.6 | 8.7 | 0.00 | 0.00 | 0.00 | 82 | 1018.8 |
| 20260906142525 | 66 | 51 | 2.6 | 7.8 | 0.00 | 0.00 | 0.00 | 83 | 1018.6 |
| 20260906142025 | 66 | 48 | 1.7 | 8.7 | 0.00 | 0.00 | 0.00 | 82 | 1018.6 |
| 20260906141551 | 66 | 80 | 1.7 | 8.7 | 0.00 | 0.00 | 0.00 | 82 | 1018.6 |
| 20260906141025 | 66 | 60 | 2.6 | 7.8 | 0.00 | 0.00 | 0.00 | 83 | 1018.6 |
| 20260906140525 | 66 | 0 | 0.9 | 7.0 | 0.00 | 0.00 | 0.00 | 83 | 1018.4 |
| 20260906140055 | 66 | 44 | 1.7 | 9.6 | 0.00 | 0.00 | 0.00 | 84 | 1018.3 |
| 20260906135523 | 66 | 0 | 2.6 | 9.6 | 0.00 | 0.00 | 0.00 | 83 | 1018.3 |
| 20260906135023 | 66 | 74 | 2.6 | 7.8 | 0.00 | 0.00 | 0.00 | 83 | 1018.2 |
| 20260906134543 | 66 | 46 | 2.6 | 7.8 | 0.00 | 0.00 | 0.00 | 83 | 1018.2 |
| 20260906134023 | 66 | 54 | 1.7 | 7.0 | 0.00 | 0.00 | 0.00 | 84 | 1018.1 |
| 20260906133528 | 66 | 65 | 1.7 | 7.0 | 0.00 | 0.00 | 0.00 | 84 | 1018.0 |
| 20260906133112 | 66 | 88 | 1.7 | 7.8 | 0.00 | 0.00 | 0.00 | 83 | 1018.0 |
| 20260906132525 | 66 | 62 | 1.7 | 7.8 | 0.00 | 0.00 | 0.00 | 83 | 1018.0 |
| 20260906132025 | 66 | 352 | 1.7 | 7.8 | 0.00 | 0.00 | 0.00 | 83 | 1017.9 |
| 20260906131550 | 66 | 66 | 1.7 | 8.7 | 0.00 | 0.00 | 0.00 | 83 | 1018.0 |
| 20260906131024 | 67 | 82 | 2.6 | 10.4 | 0.00 | 0.00 | 0.00 | 82 | 1018.0 |
| 20260906130524 | 67 | 51 | 3.5 | 10.4 | 0.00 | 0.00 | 0.00 | 83 | 1018.1 |
| 20260906130104 | 67 | 79 | 1.7 | 7.0 | 0.00 | 0.00 | 0.00 | 84 | 1017.9 |
| 20260906125523 | 66 | 71 | 2.6 | 7.0 | 0.00 | 0.00 | 0.00 | 84 | 1017.7 |
| 20260906125023 | 66 | 360 | 1.7 | 7.8 | 0.00 | 0.00 | 0.00 | 84 | 1017.6 |
| 20260906124544 | 66 | 92 | 1.7 | 7.8 | 0.00 | 0.00 | 0.00 | 83 | 1017.6 |
| 20260906124028 | 66 | 62 | 2.6 | 7.8 | 0.00 | 0.00 | 0.00 | 83 | 1017.7 |
| 20260906123523 | 66 | 41 | 1.7 | 7.8 | 0.00 | 0.00 | 0.00 | 84 | 1017.6 |
| 20260906123051 | 66 | 71 | 1.7 | 7.0 | 0.00 | 0.00 | 0.00 | 83 | 1017.6 |
| 20260906122524 | 66 | 63 | 1.7 | 8.7 | 0.00 | 0.00 | 0.00 | 84 | 1017.6 |
| 20260906122021 | 66 | 88 | 2.6 | 8.7 | 0.00 | 0.00 | 0.00 | 85 | 1017.6 |
| 20260906121547 | 66 | 62 | 2.6 | 8.7 | 0.00 | 0.00 | 0.00 | 85 | 1017.4 |
| 20260906121024 | 65 | 61 | 1.7 | 6.1 | 0.00 | 0.00 | 0.00 | 86 | 1017.4 |
| 20260906120524 | 66 | 93 | 1.7 | 8.7 | 0.00 | 0.00 | 0.00 | 86 | 1017.5 |
| 20260906120046 | 66 | 86 | 2.6 | 8.7 | 0.00 | 0.00 | 0.00 | 86 | 1017.4 |
| 20260906115524 | 66 | 229 | 2.6 | 8.7 | 0.00 | 0.00 | 0.00 | 86 | 1017.3 |
| 20260906115023 | 66 | 70 | 1.7 | 12.2 | 0.00 | 0.00 | 0.00 | 86 | 1017.2 |
| 20260906114553 | 66 | 74 | 2.6 | 12.2 | 0.00 | 0.00 | 0.00 | 86 | 1017.2 |
| 20260906114023 | 65 | 82 | 2.6 | 12.2 | 0.00 | 0.00 | 0.00 | 86 | 1017.1 |
| 20260906113524 | 65 | 340 | 2.6 | 7.0 | 0.00 | 0.00 | 0.00 | 86 | 1017.0 |
| 20260906113051 | 65 | 23 | 2.6 | 7.8 | 0.00 | 0.00 | 0.00 | 86 | 1017.0 |
| 20260906112524 | 65 | 88 | 2.6 | 7.8 | 0.00 | 0.00 | 0.00 | 86 | 1016.8 |
| 20260906112026 | 65 | 9 | 1.7 | 7.8 | 0.00 | 0.00 | 0.00 | 86 | 1016.8 |
| 20260906111606 | 65 | 67 | 1.7 | 7.8 | 0.00 | 0.00 | 0.00 | 86 | 1016.6 |
| 20260906111024 | 65 | 78 | 2.6 | 7.8 | 0.00 | 0.00 | 0.00 | 87 | 1016.6 |
| 20260906110523 | 65 | 82 | 2.6 | 7.0 | 0.00 | 0.00 | 0.00 | 86 | 1016.6 |
| 20260906110042 | 66 | 65 | 1.7 | 7.0 | 0.00 | 0.00 | 0.00 | 86 | 1016.6 |
| 20260906105525 | 66 | 13 | 0.9 | 7.0 | 0.00 | 0.00 | 0.00 | 86 | 1016.5 |
| 20260906105027 | 66 | 72 | 2.6 | 7.0 | 0.00 | 0.00 | 0.00 | 86 | 1016.4 |
| 20260906104552 | 66 | 62 | 2.6 | 7.0 | 0.00 | 0.00 | 0.00 | 86 | 1016.4 |
| 20260906104024 | 66 | 5 | 2.6 | 6.1 | 0.00 | 0.00 | 0.00 | 86 | 1016.3 |
| 20260906103525 | 66 | 57 | 2.6 | 6.1 | 0.00 | 0.00 | 0.00 | 86 | 1016.2 |
| 20260906103049 | 66 | 54 | 1.7 | 6.1 | 0.00 | 0.00 | 0.00 | 86 | 1016.2 |
| 20260906102528 | 66 | 340 | 1.7 | 8.7 | 0.00 | 0.00 | 0.00 | 86 | 1016.2 |
| 20260906102024 | 66 | 35 | 1.7 | 10.4 | 0.00 | 0.00 | 0.00 | 86 | 1016.0 |
| 20260906101549 | 66 | 80 | 2.6 | 10.4 | 0.00 | 0.00 | 0.00 | 86 | 1015.9 |
| 20260906101024 | 66 | 57 | 1.7 | 6.1 | 0.00 | 0.00 | 0.00 | 86 | 1015.8 |
| 20260906100526 | 66 | 62 | 0.9 | 6.1 | 0.00 | 0.00 | 0.00 | 85 | 1015.8 |
| 20260906100043 | 66 | 30 | 1.7 | 6.1 | 0.00 | 0.00 | 0.00 | 85 | 1015.8 |
| 20260906095531 | 66 | 352 | 1.7 | 5.2 | 0.00 | 0.00 | 0.00 | 85 | 1015.7 |
| 20260906095024 | 66 | 26 | 0.9 | 7.8 | 0.00 | 0.00 | 0.00 | 85 | 1015.7 |
| 20260906094551 | 66 | 28 | 0.9 | 7.8 | 0.00 | 0.00 | 0.00 | 85 | 1015.6 |
| 20260906094024 | 66 | 28 | 1.7 | 7.8 | 0.00 | 0.00 | 0.00 | 85 | 1015.7 |
| 20260906093525 | 66 | 42 | 1.7 | 7.8 | 0.00 | 0.00 | 0.00 | 86 | 1015.6 |
| 20260906093051 | 66 | 352 | 0.9 | 3.5 | 0.00 | 0.00 | 0.00 | 86 | 1015.5 |
| 20260906092524 | 66 | 11 | 0.9 | 5.2 | 0.00 | 0.00 | 0.00 | 86 | 1015.5 |
| 20260906092024 | 66 | 59 | 0.0 | 6.1 | 0.00 | 0.00 | 0.00 | 87 | 1015.3 |
| 20260906091548 | 66 | 82 | 0.9 | 10.4 | 0.00 | 0.00 | 0.00 | 87 | 1015.3 |
| 20260906091024 | 66 | 24 | 2.6 | 10.4 | 0.00 | 0.00 | 0.00 | 87 | 1015.2 |
| 20260906090529 | 66 | 78 | 0.0 | 5.2 | 0.00 | 0.00 | 0.00 | 86 | 1015.0 |
| 20260906090045 | 66 | 44 | 0.0 | 5.2 | 0.00 | 0.00 | 0.00 | 86 | 1014.9 |
| 20260906085523 | 66 | 60 | 0.9 | 5.2 | 0.00 | 0.00 | 0.00 | 87 | 1014.8 |
| 20260906085024 | 65 | 66 | 0.9 | 3.5 | 0.00 | 0.00 | 0.00 | 88 | 1014.9 |
| 20260906084552 | 65 | 55 | 0.9 | 4.3 | 0.00 | 0.00 | 0.00 | 90 | 1015.0 |
| 20260906084027 | 65 | 77 | 0.9 | 4.3 | 0.00 | 0.00 | 0.00 | 92 | 1014.8 |
| 20260906083524 | 64 | 61 | 0.9 | 4.3 | 0.00 | 0.00 | 0.00 | 94 | 1014.9 |
| 20260906083051 | 64 | 0 | 0.0 | 3.5 | 0.00 | 0.00 | 0.00 | 95 | 1014.9 |
| 20260906082524 | 62 | 22 | 0.0 | 2.6 | 0.00 | 0.00 | 0.00 | 95 | 1014.7 |
| 20260906082023 | 61 | 19 | 0.0 | 2.6 | 0.00 | 0.00 | 0.00 | 94 | 1014.8 |
| 20260906081546 | 61 | 0 | 0.0 | 0.0 | 0.00 | 0.00 | 0.00 | 94 | 1014.7 |
| 20260906081023 | 61 | 0 | 0.0 | 0.0 | 0.00 | 0.00 | 0.00 | 93 | 1014.6 |
| 20260906080526 | 61 | 0 | 0.0 | 0.0 | 0.00 | 0.00 | 0.00 | 93 | 1014.6 |
| 20260906080046 | 61 | 0 | 0.0 | 0.0 | 0.00 | 0.00 | 0.00 | 93 | 1014.7 |
| 20260906075524 | 61 | 0 | 0.0 | 0.0 | 0.00 | 0.00 | 0.00 | 92 | 1014.6 |
| 20260906075024 | 61 | 0 | 0.0 | 0.0 | 0.00 | 0.00 | 0.00 | 92 | 1014.6 |
| 20260906074551 | 61 | 0 | 0.0 | 0.0 | 0.00 | 0.00 | 0.00 | 92 | 1014.6 |
| 20260906074024 | 61 | 0 | 0.0 | 0.0 | 0.00 | 0.00 | 0.00 | 92 | 1014.5 |
| 20260906073525 | 61 | 0 | 0.0 | 0.0 | 0.00 | 0.00 | 0.00 | 92 | 1014.5 |
| 20260906073054 | 61 | 0 | 0.0 | 0.0 | 0.00 | 0.00 | 0.00 | 92 | 1014.7 |
| 20260906072525 | 61 | 0 | 0.0 | 0.0 | 0.00 | 0.00 | 0.00 | 91 | 1014.6 |
| 20260906072024 | 62 | 0 | 0.0 | 0.0 | 0.00 | 0.00 | 0.00 | 91 | 1014.5 |
| 20260906071551 | 62 | 0 | 0.0 | 0.0 | 0.00 | 0.00 | 0.00 | 91 | 1014.5 |
| 20260906071023 | 62 | 0 | 0.0 | 0.0 | 0.00 | 0.00 | 0.00 | 91 | 1014.6 |
| 20260906070523 | 62 | 0 | 0.0 | 0.0 | 0.00 | 0.00 | 0.00 | 91 | 1014.5 |
| 20260906070042 | 62 | 0 | 0.0 | 0.0 | 0.00 | 0.00 | 0.00 | 90 | 1014.7 |
| 20260906065525 | 62 | 0 | 0.0 | 0.0 | 0.00 | 0.00 | 0.00 | 90 | 1014.8 |
| 20260906065026 | 63 | 0 | 0.0 | 0.0 | 0.00 | 0.00 | 0.00 | 90 | 1014.7 |
| 20260906064552 | 63 | 0 | 0.0 | 0.0 | 0.00 | 0.00 | 0.00 | 90 | 1014.6 |
| 20260906064028 | 63 | 0 | 0.0 | 0.0 | 0.00 | 0.00 | 0.00 | 89 | 1014.6 |
| 20260906063523 | 63 | 0 | 0.0 | 0.0 | 0.00 | 0.00 | 0.00 | 88 | 1014.6 |
| 20260906063041 | 64 | 0 | 0.0 | 0.0 | 0.00 | 0.00 | 0.00 | 88 | 1014.7 |
| 20260906062524 | 64 | 0 | 0.0 | 0.0 | 0.00 | 0.00 | 0.00 | 88 | 1014.8 |
| 20260906062027 | 64 | 0 | 0.0 | 0.0 | 0.00 | 0.00 | 0.00 | 87 | 1014.7 |
| 20260906061552 | 65 | 0 | 0.0 | 2.6 | 0.00 | 0.00 | 0.00 | 86 | 1014.6 |
| 20260906061024 | 66 | 0 | 0.0 | 2.6 | 0.00 | 0.00 | 0.00 | 85 | 1014.7 |
| 20260906060524 | 66 | 15 | 0.0 | 2.6 | 0.00 | 0.00 | 0.00 | 84 | 1014.6 |
| 20260906060048 | 66 | 0 | 0.0 | 0.0 | 0.00 | 0.00 | 0.00 | 84 | 1014.8 |
| 20260906055524 | 67 | 0 | 0.0 | 0.9 | 0.00 | 0.00 | 0.00 | 82 | 1014.9 |
| 20260906055024 | 67 | 0 | 0.0 | 1.7 | 0.00 | 0.00 | 0.00 | 82 | 1014.8 |
| 20260906054559 | 68 | 0 | 0.0 | 2.6 | 0.00 | 0.00 | 0.00 | 81 | 1014.8 |
| 20260906054024 | 68 | 99 | 0.0 | 2.6 | 0.00 | 0.00 | 0.00 | 80 | 1014.8 |
| 20260906053524 | 68 | 0 | 0.0 | 2.6 | 0.00 | 0.00 | 0.00 | 80 | 1014.8 |
| 20260906053042 | 68 | 0 | 0.0 | 2.6 | 0.00 | 0.00 | 0.00 | 81 | 1014.8 |
| 20260906052524 | 68 | 0 | 0.0 | 4.3 | 0.00 | 0.00 | 0.00 | 81 | 1014.9 |
| 20260906052025 | 68 | 344 | 0.9 | 4.3 | 0.00 | 0.00 | 0.00 | 81 | 1014.9 |
| 20260906051608 | 68 | 86 | 0.0 | 2.6 | 0.00 | 0.00 | 0.00 | 81 | 1014.8 |
| 20260906051024 | 68 | 0 | 0.0 | 3.5 | 0.00 | 0.00 | 0.00 | 82 | 1014.6 |
| 20260906050525 | 68 | 21 | 0.9 | 3.5 | 0.00 | 0.00 | 0.00 | 82 | 1014.7 |
| 20260906050047 | 68 | 352 | 0.9 | 3.5 | 0.00 | 0.00 | 0.00 | 82 | 1014.6 |
| 20260906045525 | 69 | 35 | 0.9 | 5.2 | 0.00 | 0.00 | 0.00 | 82 | 1014.6 |
| 20260906045023 | 69 | 348 | 0.0 | 6.1 | 0.00 | 0.00 | 0.00 | 82 | 1014.5 |
| 20260906044552 | 69 | 348 | 1.7 | 7.0 | 0.00 | 0.00 | 0.00 | 82 | 1014.5 |
| 20260906044026 | 69 | 16 | 0.9 | 7.0 | 0.00 | 0.00 | 0.00 | 82 | 1014.6 |
| 20260906043526 | 68 | 87 | 0.9 | 3.5 | 0.00 | 0.00 | 0.00 | 83 | 1014.6 |
| 20260906043049 | 68 | 91 | 0.0 | 1.7 | 0.00 | 0.00 | 0.00 | 83 | 1014.6 |
| 20260906042526 | 69 | 0 | 0.0 | 1.7 | 0.00 | 0.00 | 0.00 | 83 | 1014.7 |
| 20260906042046 | 69 | 68 | 0.0 | 3.5 | 0.00 | 0.00 | 0.00 | 83 | 1014.6 |
| 20260906041551 | 69 | 69 | 0.9 | 3.5 | 0.00 | 0.00 | 0.00 | 82 | 1014.6 |
| 20260906041027 | 69 | 0 | 0.9 | 3.5 | 0.00 | 0.00 | 0.00 | 81 | 1014.6 |
| 20260906040524 | 69 | 59 | 0.9 | 5.2 | 0.00 | 0.00 | 0.00 | 81 | 1014.6 |
| 20260906040123 | 69 | 69 | 1.7 | 5.2 | 0.00 | 0.00 | 0.00 | 80 | 1014.6 |
| 20260906035522 | 69 | 80 | 1.7 | 5.2 | 0.00 | 0.00 | 0.00 | 80 | 1014.6 |
| 20260906035022 | 69 | 11 | 0.9 | 7.0 | 0.00 | 0.00 | 0.00 | 81 | 1014.6 |
| 20260906034604 | 69 | 342 | 2.6 | 7.0 | 0.00 | 0.00 | 0.00 | 81 | 1014.6 |
| 20260906034025 | 69 | 60 | 1.7 | 5.2 | 0.00 | 0.00 | 0.00 | 81 | 1014.6 |
| 20260906033524 | 69 | 55 | 1.7 | 7.8 | 0.00 | 0.00 | 0.00 | 82 | 1014.6 |
| 20260906033103 | 69 | 344 | 1.7 | 10.4 | 0.00 | 0.00 | 0.00 | 81 | 1014.6 |
| 20260906032523 | 69 | 9 | 1.7 | 10.4 | 0.00 | 0.00 | 0.00 | 81 | 1014.6 |
| 20260906032024 | 69 | 29 | 1.7 | 10.4 | 0.00 | 0.00 | 0.00 | 82 | 1014.5 |
| 20260906031545 | 69 | 344 | 1.7 | 7.8 | 0.00 | 0.00 | 0.00 | 82 | 1014.4 |
| 20260906031025 | 69 | 352 | 1.7 | 7.8 | 0.00 | 0.00 | 0.00 | 83 | 1014.5 |
| 20260906030525 | 69 | 344 | 1.7 | 7.0 | 0.00 | 0.00 | 0.00 | 83 | 1014.3 |
| 20260906030054 | 69 | 9 | 1.7 | 4.3 | 0.00 | 0.00 | 0.00 | 84 | 1014.2 |
| 20260906025524 | 69 | 327 | 1.7 | 5.2 | 0.00 | 0.00 | 0.00 | 84 | 1014.1 |
| 20260906025024 | 69 | 24 | 1.7 | 5.2 | 0.00 | 0.00 | 0.00 | 84 | 1014.2 |
| 20260906024600 | 69 | 9 | 1.7 | 5.2 | 0.00 | 0.00 | 0.00 | 85 | 1014.2 |
| 20260906024027 | 68 | 344 | 1.7 | 7.8 | 0.00 | 0.00 | 0.00 | 85 | 1014.2 |
| 20260906023526 | 68 | 17 | 1.7 | 7.8 | 0.00 | 0.00 | 0.00 | 86 | 1014.2 |
| 20260906023045 | 68 | 352 | 1.7 | 4.3 | 0.00 | 0.00 | 0.00 | 86 | 1014.2 |
| 20260906022523 | 67 | 329 | 1.7 | 3.5 | 0.00 | 0.00 | 0.00 | 87 | 1014.1 |
| 20260906022025 | 67 | 338 | 0.0 | 1.7 | 0.00 | 0.00 | 0.00 | 86 | 1014.1 |
| 20260906021542 | 67 | 0 | 0.0 | 1.7 | 0.00 | 0.00 | 0.00 | 86 | 1014.2 |
| 20260906021023 | 67 | 0 | 0.0 | 2.6 | 0.00 | 0.00 | 0.00 | 86 | 1014.2 |
| 20260906020525 | 68 | 0 | 0.0 | 3.5 | 0.00 | 0.00 | 0.00 | 86 | 1014.2 |
| 20260906020050 | 67 | 351 | 0.9 | 3.5 | 0.00 | 0.00 | 0.00 | 86 | 1014.2 |
| 20260906015524 | 67 | 14 | 0.9 | 3.5 | 0.00 | 0.00 | 0.00 | 86 | 1014.3 |
| 20260906015024 | 67 | 0 | 0.0 | 2.6 | 0.00 | 0.00 | 0.00 | 86 | 1014.3 |
| 20260906014548 | 67 | 360 | 0.0 | 2.6 | 0.00 | 0.00 | 0.00 | 85 | 1014.2 |
| 20260906014025 | 68 | 0 | 0.0 | 3.5 | 0.00 | 0.00 | 0.00 | 85 | 1014.2 |
| 20260906013522 | 68 | 15 | 0.9 | 3.5 | 0.00 | 0.00 | 0.00 | 85 | 1014.0 |
| 20260906013042 | 68 | 341 | 0.9 | 4.3 | 0.00 | 0.00 | 0.00 | 85 | 1014.1 |
| 20260906012527 | 68 | 343 | 0.0 | 4.3 | 0.00 | 0.00 | 0.00 | 85 | 1014.1 |
| 20260906012026 | 67 | 5 | 0.9 | 3.5 | 0.00 | 0.00 | 0.00 | 86 | 1014.2 |
| 20260906011550 | 67 | 313 | 0.0 | 2.6 | 0.00 | 0.00 | 0.00 | 86 | 1014.1 |
| 20260906011028 | 67 | 322 | 0.0 | 2.6 | 0.00 | 0.00 | 0.00 | 87 | 1014.2 |
| 20260906010525 | 67 | 0 | 0.0 | 0.0 | 0.00 | 0.00 | 0.00 | 87 | 1014.2 |
| 20260906010052 | 67 | 0 | 0.0 | 0.0 | 0.00 | 0.00 | 0.00 | 87 | 1014.2 |
| 20260906005525 | 67 | 0 | 0.0 | 0.9 | 0.00 | 0.00 | 0.00 | 87 | 1014.1 |
| 20260906005025 | 66 | 0 | 0.0 | 1.7 | 0.00 | 0.00 | 0.00 | 88 | 1014.1 |
| 20260906004549 | 66 | 0 | 0.0 | 1.7 | 0.00 | 0.00 | 0.00 | 88 | 1014.0 |
| 20260906004029 | 66 | 0 | 0.0 | 1.7 | 0.00 | 0.00 | 0.00 | 88 | 1013.9 |
| 20260906003524 | 66 | 0 | 0.0 | 1.7 | 0.00 | 0.00 | 0.00 | 88 | 1014.1 |
| 20260906003054 | 66 | 0 | 0.0 | 2.6 | 0.00 | 0.00 | 0.00 | 88 | 1014.0 |
| 20260906002525 | 67 | 0 | 0.0 | 2.6 | 0.00 | 0.00 | 0.00 | 87 | 1014.1 |
| 20260906002025 | 67 | 302 | 0.0 | 2.6 | 0.00 | 0.00 | 0.00 | 87 | 1014.2 |
| 20260906001549 | 66 | 336 | 0.0 | 2.6 | 0.00 | 0.00 | 0.00 | 87 | 1014.1 |
| 20260906001025 | 66 | 336 | 0.0 | 2.6 | 0.00 | 0.00 | 0.00 | 87 | 1014.2 |
| 20260906000525 | 66 | 0 | 0.0 | 0.0 | 0.00 | 0.00 | 0.00 | 87 | 1014.1 |
| 20260906000051 | 66 | 0 | 0.0 | 0.0 | 0.00 | 0.00 | 0.00 | 87 | 1014.2 |
| 20260905235524 | 67 | 0 | 0.0 | 0.0 | 0.00 | 0.00 | 0.00 | 86 | 1014.2 |
| 20260905235024 | 67 | 0 | 0.0 | 0.0 | 0.00 | 0.00 | 0.00 | 87 | 1014.1 |
| 20260905234548 | 67 | 0 | 0.0 | 0.0 | 0.00 | 0.00 | 0.00 | 86 | 1014.1 |
| 20260905234023 | 67 | 0 | 0.0 | 0.0 | 0.00 | 0.00 | 0.00 | 86 | 1014.0 |
| 20260905233526 | 67 | 0 | 0.0 | 0.0 | 0.00 | 0.00 | 0.00 | 85 | 1014.0 |
| 20260905233058 | 67 | 0 | 0.0 | 0.0 | 0.00 | 0.00 | 0.00 | 85 | 1014.0 |
| 20260905232524 | 67 | 0 | 0.0 | 0.0 | 0.00 | 0.00 | 0.00 | 85 | 1013.9 |
| 20260905232024 | 68 | 0 | 0.0 | 0.0 | 0.00 | 0.00 | 0.00 | 85 | 1013.9 |
| 20260905231548 | 68 | 0 | 0.0 | 0.0 | 0.00 | 0.00 | 0.00 | 85 | 1013.9 |
| 20260905231024 | 68 | 0 | 0.0 | 0.0 | 0.00 | 0.00 | 0.00 | 84 | 1014.0 |
| 20260905230524 | 68 | 0 | 0.0 | 0.0 | 0.00 | 0.00 | 0.00 | 84 | 1014.1 |
| 20260905230042 | 68 | 0 | 0.0 | 0.0 | 0.00 | 0.00 | 0.00 | 84 | 1014.1 |
| 20260905225523 | 68 | 0 | 0.0 | 0.0 | 0.00 | 0.00 | 0.00 | 83 | 1014.2 |
| 20260905225023 | 68 | 0 | 0.0 | 0.0 | 0.00 | 0.00 | 0.00 | 83 | 1014.1 |
| 20260905224611 | 68 | 0 | 0.0 | 0.0 | 0.00 | 0.00 | 0.00 | 82 | 1014.2 |
| 20260905224025 | 68 | 0 | 0.0 | 3.5 | 0.00 | 0.00 | 0.00 | 82 | 1014.2 |
| 20260905223525 | 69 | 0 | 0.0 | 6.1 | 0.00 | 0.00 | 0.00 | 81 | 1014.2 |
| 20260905223055 | 69 | 10 | 1.7 | 6.1 | 0.00 | 0.00 | 0.00 | 81 | 1014.2 |
| 20260905222524 | 70 | 0 | 0.0 | 5.2 | 0.00 | 0.00 | 0.00 | 80 | 1014.1 |
| 20260905222023 | 70 | 10 | 1.7 | 7.0 | 0.00 | 0.00 | 0.00 | 80 | 1013.9 |
| 20260905221546 | 70 | 5 | 2.6 | 7.0 | 0.00 | 0.00 | 0.00 | 81 | 1014.0 |
| 20260905221055 | 69 | 342 | 0.9 | 6.1 | 0.00 | 0.00 | 0.00 | 82 | 1013.9 |
| 20260905220525 | 69 | 331 | 1.7 | 7.0 | 0.00 | 0.00 | 0.00 | 81 | 1014.0 |
| 20260905220051 | 69 | 348 | 2.6 | 7.0 | 0.00 | 0.00 | 0.00 | 81 | 1014.1 |
| 20260905215526 | 69 | 338 | 2.6 | 7.0 | 0.00 | 0.00 | 0.00 | 80 | 1014.1 |